Time,TemperatureF,DewpointF,PressureIn,WindDirection,WindDirectionDegrees,WindSpeedMPH,WindSpeedGustMPH,Humidity,HourlyPrecipIn,Conditions,Clouds,dailyrainin,SoftwareType,DateUTC
2013-06-30 00:01:00,72.9,72.9,29.75,ESE,104,5.0,14.0,0,0.00,,,0.00,meteohub,2013-06-30 04:01:00,
2013-06-30 00:02:00,72.9,72.9,29.75,SSE,148,2.0,14.0,0,0.00,,,0.00,meteohub,2013-06-30 04:02:00,
2013-06-30 00:07:00,72.9,72.9,29.75,SSE,148,1.0,14.0,0,0.00,,,0.00,meteohub,2013-06-30 04:07:00,
2013-06-30 00:12:00,72.9,72.9,29.75,South,169,9.0,19.0,0,0.00,,,0.00,meteohub,2013-06-30 04:12:00,
2013-06-30 00:17:00,72.9,72.9,29.75,SSE,165,4.0,19.0,0,0.00,,,0.00,meteohub,2013-06-30 04:17:00,
2013-06-30 00:22:00,72.9,72.9,29.75,SSW,207,2.0,19.0,0,0.00,,,0.00,meteohub,2013-06-30 04:22:00,
2013-06-30 00:27:00,72.9,72.9,29.75,SSW,200,4.0,15.0,0,0.00,,,0.00,meteohub,2013-06-30 04:27:00,
2013-06-30 00:32:00,72.9,72.9,29.75,SW,224,2.0,15.0,0,0.00,,,0.00,meteohub,2013-06-30 04:32:00,
2013-06-30 00:37:00,72.7,72.7,29.75,WSW,248,3.0,13.0,0,0.00,,,0.00,meteohub,2013-06-30 04:37:00,
2013-06-30 00:42:00,72.7,72.7,29.75,SSW,194,1.0,10.0,0,0.00,,,0.00,meteohub,2013-06-30 04:42:00,
2013-06-30 00:47:00,72.7,72.7,29.76,WSW,243,2.0,10.0,0,0.00,,,0.00,meteohub,2013-06-30 04:47:00,
2013-06-30 00:52:00,72.7,72.7,29.76,WSW,242,0.0,10.0,0,0.00,,,0.00,meteohub,2013-06-30 04:52:00,
2013-06-30 00:57:00,72.5,72.5,29.76,SE,137,2.0,9.0,0,0.00,,,0.00,meteohub,2013-06-30 04:57:00,
2013-06-30 01:02:00,72.3,72.3,29.76,SSW,198,1.0,7.0,0,0.00,,,0.00,meteohub,2013-06-30 05:02:00,
2013-06-30 01:07:00,72.3,72.3,29.76,SSE,158,1.0,7.0,0,0.00,,,0.00,meteohub,2013-06-30 05:07:00,
2013-06-30 01:12:00,72.3,72.3,29.76,SSE,148,2.0,8.0,0,0.00,,,0.00,meteohub,2013-06-30 05:12:00,
2013-06-30 01:17:00,72.3,72.3,29.76,South,188,6.0,8.0,0,0.00,,,0.00,meteohub,2013-06-30 05:17:00,
2013-06-30 01:22:00,72.3,72.3,29.76,SE,134,1.0,8.0,0,0.00,,,0.00,meteohub,2013-06-30 05:22:00,
2013-06-30 01:27:00,72.3,72.3,29.76,South,191,3.0,8.0,0,0.00,,,0.00,meteohub,2013-06-30 05:27:00,
2013-06-30 01:32:00,72.1,72.1,29.76,SSE,160,3.0,8.0,0,0.00,,,0.00,meteohub,2013-06-30 05:32:00,
2013-06-30 01:37:00,72.1,72.1,29.76,ESE,113,4.0,8.0,0,0.00,,,0.00,meteohub,2013-06-30 05:37:00,
2013-06-30 01:42:00,72.1,72.1,29.76,SSE,159,2.0,6.0,0,0.00,,,0.00,meteohub,2013-06-30 05:42:00,
2013-06-30 01:47:00,72.0,72.0,29.76,South,178,2.0,7.0,0,0.00,,,0.00,meteohub,2013-06-30 05:47:00,
2013-06-30 01:52:00,72.0,72.0,29.76,SSW,201,2.0,8.0,0,0.00,,,0.00,meteohub,2013-06-30 05:52:00,
2013-06-30 01:57:00,72.0,72.0,29.76,SE,132,1.0,10.0,0,0.00,,,0.00,meteohub,2013-06-30 05:57:00,
2013-06-30 02:02:00,72.0,72.0,29.76,SE,131,8.0,10.0,0,0.00,,,0.00,meteohub,2013-06-30 06:02:00,
2013-06-30 02:07:00,71.8,71.8,29.76,SE,135,3.0,10.0,0,0.00,,,0.00,meteohub,2013-06-30 06:07:00,
2013-06-30 02:12:00,71.8,71.8,29.76,SW,214,2.0,8.0,0,0.00,,,0.00,meteohub,2013-06-30 06:12:00,
2013-06-30 02:17:00,71.8,71.8,29.76,SE,139,2.0,8.0,0,0.00,,,0.00,meteohub,2013-06-30 06:17:00,
2013-06-30 02:22:00,71.8,71.8,29.77,SW,235,0.0,8.0,0,0.00,,,0.00,meteohub,2013-06-30 06:22:00,
2013-06-30 02:27:00,71.8,71.8,29.77,West,274,1.0,7.0,0,0.00,,,0.00,meteohub,2013-06-30 06:27:00,
2013-06-30 02:32:00,71.8,71.8,29.77,SE,143,0.0,7.0,0,0.00,,,0.00,meteohub,2013-06-30 06:32:00,
2013-06-30 02:37:00,71.8,71.8,29.77,SE,146,0.0,8.0,0,0.00,,,0.00,meteohub,2013-06-30 06:37:00,
2013-06-30 02:42:00,71.6,71.6,29.77,SW,218,0.0,12.0,0,0.00,,,0.00,meteohub,2013-06-30 06:42:00,
2013-06-30 02:47:00,71.6,71.6,29.77,East,88,1.0,12.0,0,0.00,,,0.00,meteohub,2013-06-30 06:47:00,
2013-06-30 02:52:00,71.4,71.4,29.77,SSE,167,5.0,12.0,0,0.00,,,0.00,meteohub,2013-06-30 06:52:00,
2013-06-30 02:57:00,71.4,71.4,29.77,South,187,0.0,11.0,0,0.00,,,0.00,meteohub,2013-06-30 06:57:00,
2013-06-30 03:02:00,71.4,71.4,29.77,SE,129,0.0,12.0,0,0.00,,,0.00,meteohub,2013-06-30 07:02:00,
2013-06-30 03:07:00,71.2,71.2,29.77,WSW,238,5.0,12.0,0,0.00,,,0.00,meteohub,2013-06-30 07:07:00,
2013-06-30 03:12:00,71.2,71.2,29.77,SE,128,0.0,8.0,0,0.00,,,0.00,meteohub,2013-06-30 07:12:00,
2013-06-30 03:17:00,71.2,71.2,29.77,South,187,0.0,8.0,0,0.00,,,0.00,meteohub,2013-06-30 07:17:00,
2013-06-30 03:22:00,71.2,71.2,29.76,SE,139,1.0,9.0,0,0.00,,,0.00,meteohub,2013-06-30 07:22:00,
2013-06-30 03:27:00,71.2,71.2,29.76,SE,132,0.0,9.0,0,0.00,,,0.00,meteohub,2013-06-30 07:27:00,
2013-06-30 03:32:00,71.2,71.2,29.76,South,174,0.0,9.0,0,0.00,,,0.00,meteohub,2013-06-30 07:32:00,
2013-06-30 03:37:00,71.2,71.2,29.76,SSE,152,0.0,7.0,0,0.00,,,0.00,meteohub,2013-06-30 07:37:00,
2013-06-30 03:42:00,71.1,71.1,29.76,SSW,197,0.0,8.0,0,0.00,,,0.00,meteohub,2013-06-30 07:42:00,
2013-06-30 03:47:00,71.1,71.1,29.77,SSW,203,0.0,8.0,0,0.00,,,0.00,meteohub,2013-06-30 07:47:00,
2013-06-30 03:52:00,71.1,71.1,29.77,NNW,342,0.0,8.0,0,0.00,,,0.00,meteohub,2013-06-30 07:52:00,
2013-06-30 03:57:00,71.1,71.1,29.77,SE,146,0.0,10.0,0,0.00,,,0.00,meteohub,2013-06-30 07:57:00,
2013-06-30 04:02:00,70.9,70.9,29.77,SE,134,0.0,10.0,0,0.00,,,0.00,meteohub,2013-06-30 08:02:00,
2013-06-30 04:07:00,70.9,70.9,29.77,SE,138,0.0,10.0,0,0.00,,,0.00,meteohub,2013-06-30 08:07:00,
2013-06-30 04:12:00,70.9,70.9,29.77,ESE,117,0.0,5.0,0,0.00,,,0.00,meteohub,2013-06-30 08:12:00,
2013-06-30 04:17:00,70.9,70.9,29.78,SSW,212,0.0,5.0,0,0.00,,,0.00,meteohub,2013-06-30 08:17:00,
2013-06-30 04:23:00,70.7,70.7,29.78,South,181,0.0,1.0,0,0.00,,,0.00,meteohub,2013-06-30 08:23:00,
2013-06-30 04:28:00,70.7,70.7,29.78,SSE,167,0.0,1.0,0,0.00,,,0.00,meteohub,2013-06-30 08:28:00,
2013-06-30 04:33:00,70.5,70.5,29.78,SSW,193,0.0,1.0,0,0.00,,,0.00,meteohub,2013-06-30 08:33:00,
2013-06-30 04:38:00,70.5,70.5,29.79,SE,141,0.0,1.0,0,0.00,,,0.00,meteohub,2013-06-30 08:38:00,
2013-06-30 04:43:00,70.5,70.5,29.79,SSE,154,0.0,1.0,0,0.00,,,0.00,meteohub,2013-06-30 08:43:00,
2013-06-30 04:48:00,70.5,70.5,29.79,SE,131,0.0,1.0,0,0.00,,,0.00,meteohub,2013-06-30 08:48:00,
2013-06-30 04:53:00,70.7,70.7,29.79,SSW,210,0.0,1.0,0,0.00,,,0.00,meteohub,2013-06-30 08:53:00,
2013-06-30 04:58:00,70.7,70.7,29.79,SSE,155,0.0,1.0,0,0.00,,,0.00,meteohub,2013-06-30 08:58:00,
2013-06-30 05:03:00,70.7,70.7,29.79,SSW,210,0.0,1.0,0,0.00,,,0.00,meteohub,2013-06-30 09:03:00,
2013-06-30 05:08:00,70.7,70.7,29.79,South,175,0.0,1.0,0,0.00,,,0.00,meteohub,2013-06-30 09:08:00,
2013-06-30 05:13:00,70.7,70.7,29.79,SSE,165,0.0,1.0,0,0.00,,,0.00,meteohub,2013-06-30 09:13:00,
2013-06-30 05:18:00,70.7,70.7,29.79,South,181,0.0,1.0,0,0.00,,,0.00,meteohub,2013-06-30 09:18:00,
2013-06-30 05:23:00,70.7,70.7,29.80,SSW,204,0.0,1.0,0,0.00,,,0.00,meteohub,2013-06-30 09:23:00,
2013-06-30 05:28:00,70.7,70.7,29.80,South,180,0.0,1.0,0,0.00,,,0.00,meteohub,2013-06-30 09:28:00,
2013-06-30 05:33:00,70.7,70.7,29.80,SSW,193,0.0,1.0,0,0.00,,,0.00,meteohub,2013-06-30 09:33:00,
2013-06-30 05:38:00,70.7,70.7,29.80,SSE,149,0.0,1.0,0,0.00,,,0.00,meteohub,2013-06-30 09:38:00,
2013-06-30 05:43:00,70.9,70.9,29.80,SE,131,0.0,1.0,0,0.00,,,0.00,meteohub,2013-06-30 09:43:00,
2013-06-30 05:48:00,70.9,70.9,29.80,SE,135,0.0,1.0,0,0.00,,,0.00,meteohub,2013-06-30 09:48:00,
2013-06-30 05:53:00,70.9,70.9,29.81,SSE,159,0.0,1.0,0,0.00,,,0.00,meteohub,2013-06-30 09:53:00,
2013-06-30 05:58:00,70.9,70.9,29.81,ESE,109,0.0,1.0,0,0.00,,,0.00,meteohub,2013-06-30 09:58:00,
2013-06-30 06:03:00,70.9,70.9,29.82,SSE,151,1.0,1.0,0,0.00,,,0.00,meteohub,2013-06-30 10:03:00,
2013-06-30 06:08:00,71.1,71.1,29.82,SE,137,1.0,1.0,0,0.00,,,0.00,meteohub,2013-06-30 10:08:00,
2013-06-30 06:13:00,71.1,71.1,29.82,South,184,0.0,1.0,0,0.00,,,0.00,meteohub,2013-06-30 10:13:00,
2013-06-30 06:18:00,71.2,71.2,29.82,SSE,156,0.0,1.0,0,0.00,,,0.00,meteohub,2013-06-30 10:18:00,
2013-06-30 06:23:00,71.2,71.2,29.83,SSW,208,0.0,1.0,0,0.00,,,0.00,meteohub,2013-06-30 10:23:00,
2013-06-30 06:28:00,71.4,71.4,29.83,SW,226,0.0,1.0,0,0.00,,,0.00,meteohub,2013-06-30 10:28:00,
2013-06-30 06:33:00,71.4,71.4,29.83,South,174,1.0,1.0,0,0.00,,,0.00,meteohub,2013-06-30 10:33:00,
2013-06-30 06:38:00,71.6,71.6,29.83,ESE,116,0.0,1.0,0,0.00,,,0.00,meteohub,2013-06-30 10:38:00,
2013-06-30 06:43:00,72.0,72.0,29.83,SW,215,0.0,1.0,0,0.00,,,0.00,meteohub,2013-06-30 10:43:00,
2013-06-30 06:48:00,72.1,72.1,29.84,South,184,0.0,1.0,0,0.00,,,0.00,meteohub,2013-06-30 10:48:00,
2013-06-30 06:53:00,72.3,72.3,29.84,SSE,162,0.0,1.0,0,0.00,,,0.00,meteohub,2013-06-30 10:53:00,
2013-06-30 06:58:00,72.3,72.3,29.84,SE,139,0.0,1.0,0,0.00,,,0.00,meteohub,2013-06-30 10:58:00,
2013-06-30 07:03:00,72.7,72.7,29.84,SE,134,1.0,1.0,0,0.00,,,0.00,meteohub,2013-06-30 11:03:00,
2013-06-30 07:08:00,72.7,72.7,29.84,SSE,159,0.0,2.0,0,0.00,,,0.00,meteohub,2013-06-30 11:08:00,
2013-06-30 07:13:00,72.9,72.9,29.84,SW,215,0.0,2.0,0,0.00,,,0.00,meteohub,2013-06-30 11:13:00,
2013-06-30 07:18:00,72.9,72.9,29.85,South,180,0.0,2.0,0,0.00,,,0.00,meteohub,2013-06-30 11:18:00,
2013-06-30 07:23:00,73.0,73.0,29.85,SSW,193,0.0,1.0,0,0.00,,,0.00,meteohub,2013-06-30 11:23:00,
2013-06-30 07:28:00,73.0,73.0,29.85,SSW,208,0.0,6.0,0,0.00,,,0.00,meteohub,2013-06-30 11:28:00,
2013-06-30 07:33:00,73.0,73.0,29.86,SSE,156,0.0,6.0,0,0.00,,,0.00,meteohub,2013-06-30 11:33:00,
2013-06-30 07:38:00,73.0,73.0,29.86,SSW,210,0.0,6.0,0,0.00,,,0.00,meteohub,2013-06-30 11:38:00,
2013-06-30 07:43:00,73.0,73.0,29.87,South,170,0.0,1.0,0,0.00,,,0.00,meteohub,2013-06-30 11:43:00,
2013-06-30 07:48:00,73.0,73.0,29.87,SSW,197,0.0,1.0,0,0.00,,,0.00,meteohub,2013-06-30 11:48:00,
2013-06-30 07:53:00,73.2,73.2,29.86,South,181,0.0,1.0,0,0.00,,,0.00,meteohub,2013-06-30 11:53:00,
2013-06-30 07:58:00,73.6,73.6,29.87,South,184,0.0,1.0,0,0.00,,,0.00,meteohub,2013-06-30 11:58:00,
2013-06-30 08:04:00,73.8,73.8,29.87,SW,214,0.0,1.0,0,0.00,,,0.00,meteohub,2013-06-30 12:04:00,
2013-06-30 08:09:00,73.9,73.9,29.87,South,174,0.0,1.0,0,0.00,,,0.00,meteohub,2013-06-30 12:09:00,
2013-06-30 08:14:00,74.1,74.1,29.87,SSW,194,0.0,1.0,0,0.00,,,0.00,meteohub,2013-06-30 12:14:00,
2013-06-30 08:19:00,74.5,74.5,29.87,SSE,160,0.0,1.0,0,0.00,,,0.00,meteohub,2013-06-30 12:19:00,
2013-06-30 08:24:00,74.7,74.7,29.87,SE,137,1.0,1.0,0,0.00,,,0.00,meteohub,2013-06-30 12:24:00,
2013-06-30 08:29:00,74.5,74.5,29.87,SW,221,0.0,1.0,0,0.00,,,0.00,meteohub,2013-06-30 12:29:00,
2013-06-30 08:34:00,74.5,74.5,29.87,WSW,252,0.0,1.0,0,0.00,,,0.00,meteohub,2013-06-30 12:34:00,
2013-06-30 08:39:00,74.1,74.1,29.87,SSW,198,0.0,1.0,0,0.00,,,0.00,meteohub,2013-06-30 12:39:00,
2013-06-30 08:44:00,74.1,74.1,29.87,SW,233,0.0,1.0,0,0.00,,,0.00,meteohub,2013-06-30 12:44:00,
2013-06-30 08:49:00,74.3,74.3,29.87,SSW,211,0.0,1.0,0,0.00,,,0.00,meteohub,2013-06-30 12:49:00,
2013-06-30 08:54:00,74.5,74.5,29.87,WSW,245,0.0,1.0,0,0.00,,,0.00,meteohub,2013-06-30 12:54:00,
2013-06-30 08:59:00,74.8,74.8,29.87,SW,215,0.0,1.0,0,0.00,,,0.00,meteohub,2013-06-30 12:59:00,
2013-06-30 09:04:00,75.0,75.0,29.88,West,269,0.0,1.0,0,0.00,,,0.00,meteohub,2013-06-30 13:04:00,
2013-06-30 09:09:00,75.0,75.0,29.88,ESE,115,0.0,6.0,0,0.00,,,0.00,meteohub,2013-06-30 13:09:00,
2013-06-30 09:14:00,75.4,75.4,29.88,SSW,205,0.0,6.0,0,0.00,,,0.00,meteohub,2013-06-30 13:14:00,
2013-06-30 09:19:00,75.4,75.4,29.88,SSE,164,0.0,1.0,0,0.00,,,0.00,meteohub,2013-06-30 13:19:00,
2013-06-30 09:24:00,75.6,75.6,29.88,SSW,204,0.0,1.0,0,0.00,,,0.00,meteohub,2013-06-30 13:24:00,
2013-06-30 09:29:00,75.6,75.6,29.88,East,96,0.0,1.0,0,0.00,,,0.00,meteohub,2013-06-30 13:29:00,
2013-06-30 09:34:00,75.4,75.4,29.88,South,186,0.0,7.0,0,0.00,,,0.00,meteohub,2013-06-30 13:34:00,
2013-06-30 09:39:00,75.4,75.4,29.88,SSE,166,0.0,7.0,0,0.00,,,0.00,meteohub,2013-06-30 13:39:00,
2013-06-30 09:44:00,75.4,75.4,29.88,ESE,102,0.0,7.0,0,0.00,,,0.00,meteohub,2013-06-30 13:44:00,
2013-06-30 09:49:00,75.6,75.6,29.88,South,190,0.0,4.0,0,0.00,,,0.00,meteohub,2013-06-30 13:49:00,
2013-06-30 09:54:00,75.7,75.7,29.87,SW,221,0.0,2.0,0,0.00,,,0.00,meteohub,2013-06-30 13:54:00,
2013-06-30 09:59:00,76.5,76.5,29.87,SW,232,1.0,5.0,0,0.00,,,0.00,meteohub,2013-06-30 13:59:00,
2013-06-30 10:04:00,77.5,77.5,29.87,WNW,295,0.0,5.0,0,0.00,,,0.00,meteohub,2013-06-30 14:04:00,
2013-06-30 10:09:00,78.4,78.4,29.87,SSE,164,0.0,3.0,0,0.00,,,0.00,meteohub,2013-06-30 14:09:00,
2013-06-30 10:14:00,78.8,78.8,29.87,SSW,198,0.0,6.0,0,0.00,,,0.00,meteohub,2013-06-30 14:14:00,
2013-06-30 10:19:00,79.2,79.2,29.87,ESE,102,1.0,6.0,0,0.00,,,0.00,meteohub,2013-06-30 14:19:00,
2013-06-30 10:24:00,79.5,79.5,29.88,SW,229,0.0,4.0,0,0.00,,,0.00,meteohub,2013-06-30 14:24:00,
2013-06-30 10:29:00,80.2,80.2,29.87,SE,131,1.0,4.0,0,0.00,,,0.00,meteohub,2013-06-30 14:29:00,
2013-06-30 10:34:00,80.2,80.2,29.88,SW,226,0.0,1.0,0,0.00,,,0.00,meteohub,2013-06-30 14:34:00,
2013-06-30 10:39:00,80.1,80.1,29.88,SSE,162,0.0,1.0,0,0.00,,,0.00,meteohub,2013-06-30 14:39:00,
2013-06-30 10:44:00,79.9,79.9,29.88,SE,139,1.0,1.0,0,0.00,,,0.00,meteohub,2013-06-30 14:44:00,
2013-06-30 10:49:00,79.9,79.9,29.88,SE,134,1.0,1.0,0,0.00,,,0.00,meteohub,2013-06-30 14:49:00,
2013-06-30 10:54:00,79.9,79.9,29.88,NNW,348,0.0,1.0,0,0.00,,,0.00,meteohub,2013-06-30 14:54:00,
2013-06-30 10:59:00,79.3,79.3,29.88,SSE,163,0.0,1.0,0,0.00,,,0.00,meteohub,2013-06-30 14:59:00,
2013-06-30 11:04:00,79.3,79.3,29.88,ESE,122,0.0,1.0,0,0.00,,,0.00,meteohub,2013-06-30 15:04:00,
2013-06-30 11:09:00,79.3,79.3,29.88,SSW,195,0.0,1.0,0,0.00,,,0.00,meteohub,2013-06-30 15:09:00,
2013-06-30 11:14:00,79.2,79.2,29.88,West,263,0.0,1.0,0,0.00,,,0.00,meteohub,2013-06-30 15:14:00,
2013-06-30 11:19:00,79.2,79.2,29.88,SE,125,1.0,1.0,0,0.00,,,0.00,meteohub,2013-06-30 15:19:00,
2013-06-30 11:24:00,79.2,79.2,29.88,SSW,195,0.0,1.0,0,0.00,,,0.00,meteohub,2013-06-30 15:24:00,
2013-06-30 11:29:00,79.0,79.0,29.88,SE,138,0.0,1.0,0,0.00,,,0.00,meteohub,2013-06-30 15:29:00,
2013-06-30 11:34:00,78.6,78.6,29.89,SSE,162,0.0,1.0,0,0.00,,,0.00,meteohub,2013-06-30 15:34:00,
2013-06-30 11:39:00,78.6,78.6,29.88,SE,127,0.0,1.0,0,0.00,,,0.00,meteohub,2013-06-30 15:39:00,
2013-06-30 11:44:00,79.0,79.0,29.88,West,269,0.0,1.0,0,0.00,,,0.00,meteohub,2013-06-30 15:44:00,
2013-06-30 11:49:00,79.0,79.0,29.88,SW,226,0.0,7.0,0,0.00,,,0.00,meteohub,2013-06-30 15:49:00,
2013-06-30 11:54:00,78.6,78.6,29.88,SSW,195,0.0,7.0,0,0.00,,,0.00,meteohub,2013-06-30 15:54:00,
2013-06-30 11:59:00,78.4,78.4,29.88,SE,143,0.0,9.0,0,0.00,,,0.00,meteohub,2013-06-30 15:59:00,
2013-06-30 12:04:00,78.3,78.3,29.88,SSE,165,0.0,9.0,0,0.00,,,0.00,meteohub,2013-06-30 16:04:00,
2013-06-30 12:09:00,77.9,77.9,29.89,SE,135,1.0,9.0,0,0.00,,,0.00,meteohub,2013-06-30 16:09:00,
2013-06-30 12:14:00,77.5,77.5,29.89,South,172,2.0,9.0,0,0.00,,,0.00,meteohub,2013-06-30 16:14:00,
2013-06-30 12:19:00,77.0,77.0,29.89,WSW,256,2.0,9.0,0,0.00,,,0.00,meteohub,2013-06-30 16:19:00,
2013-06-30 12:24:00,76.5,76.5,29.89,West,269,8.0,8.0,0,0.00,,,0.00,meteohub,2013-06-30 16:24:00,
2013-06-30 12:29:00,75.9,75.9,29.89,SE,132,2.0,7.0,0,0.00,,,0.00,meteohub,2013-06-30 16:29:00,
2013-06-30 12:34:00,75.7,75.7,29.89,SSW,211,5.0,8.0,0,0.00,,,0.00,meteohub,2013-06-30 16:34:00,
2013-06-30 12:39:00,75.4,75.4,29.89,East,99,1.0,9.0,0,0.00,,,0.00,meteohub,2013-06-30 16:39:00,
2013-06-30 12:45:00,75.0,75.0,29.89,SE,144,3.0,9.0,0,0.00,,,0.00,meteohub,2013-06-30 16:45:00,
2013-06-30 12:50:00,74.8,74.8,29.89,South,179,6.0,10.0,0,0.00,,,0.00,meteohub,2013-06-30 16:50:00,
2013-06-30 12:55:00,74.8,74.8,29.89,SSW,201,2.0,10.0,0,0.00,,,0.00,meteohub,2013-06-30 16:55:00,
2013-06-30 13:00:00,75.0,75.0,29.89,SSW,212,2.0,10.0,0,0.00,,,0.00,meteohub,2013-06-30 17:00:00,
2013-06-30 13:05:00,75.4,75.4,29.89,SE,138,3.0,12.0,0,0.00,,,0.00,meteohub,2013-06-30 17:05:00,
2013-06-30 13:10:00,75.4,75.4,29.89,South,171,3.0,12.0,0,0.00,,,0.00,meteohub,2013-06-30 17:10:00,
2013-06-30 13:15:00,75.4,75.4,29.89,SSE,153,2.0,12.0,0,0.00,,,0.00,meteohub,2013-06-30 17:15:00,
2013-06-30 13:20:00,75.6,75.6,29.90,West,267,3.0,7.0,0,0.00,,,0.00,meteohub,2013-06-30 17:20:00,
2013-06-30 13:25:00,75.7,75.7,29.89,WNW,295,5.0,7.0,0,0.00,,,0.00,meteohub,2013-06-30 17:25:00,
2013-06-30 13:30:00,75.7,75.7,29.90,NNW,328,1.0,7.0,0,0.00,,,0.00,meteohub,2013-06-30 17:30:00,
2013-06-30 13:35:00,75.9,75.9,29.90,SW,226,3.0,6.0,0,0.00,,,0.00,meteohub,2013-06-30 17:35:00,
2013-06-30 13:40:00,75.9,75.9,29.90,SSW,208,2.0,7.0,0,0.00,,,0.00,meteohub,2013-06-30 17:40:00,
2013-06-30 13:45:00,76.1,76.1,29.90,SSW,200,3.0,7.0,0,0.00,,,0.00,meteohub,2013-06-30 17:45:00,
2013-06-30 13:50:00,76.3,76.3,29.90,East,94,5.0,10.0,0,0.00,,,0.00,meteohub,2013-06-30 17:50:00,
2013-06-30 13:55:00,76.3,76.3,29.90,WSW,245,1.0,10.0,0,0.00,,,0.00,meteohub,2013-06-30 17:55:00,
2013-06-30 14:00:00,76.3,76.3,29.90,SSW,198,2.0,10.0,0,0.00,,,0.00,meteohub,2013-06-30 18:00:00,
2013-06-30 14:05:00,76.3,-31.2,29.89,SSW,208,2.0,13.0,1,0.00,,,0.00,meteohub,2013-06-30 18:05:00,
2013-06-30 14:10:00,76.3,76.3,29.89,SW,224,3.0,13.0,0,0.00,,,0.00,meteohub,2013-06-30 18:10:00,
2013-06-30 14:15:00,76.5,76.5,29.89,SW,229,2.0,13.0,0,0.00,,,0.00,meteohub,2013-06-30 18:15:00,
2013-06-30 14:20:00,76.5,76.5,29.89,WNW,283,1.0,9.0,0,0.00,,,0.00,meteohub,2013-06-30 18:20:00,
2013-06-30 14:25:00,76.6,76.6,29.90,South,176,3.0,15.0,0,0.00,,,0.00,meteohub,2013-06-30 18:25:00,
2013-06-30 14:30:00,76.8,76.8,29.90,SSE,165,2.0,15.0,0,0.00,,,0.00,meteohub,2013-06-30 18:30:00,
2013-06-30 14:35:00,76.8,76.8,29.90,SE,139,2.0,15.0,0,0.00,,,0.00,meteohub,2013-06-30 18:35:00,
2013-06-30 14:40:00,77.2,77.2,29.89,WNW,283,2.0,11.0,0,0.00,,,0.00,meteohub,2013-06-30 18:40:00,
2013-06-30 14:45:00,77.7,77.7,29.90,WSW,255,1.0,14.0,0,0.00,,,0.00,meteohub,2013-06-30 18:45:00,
2013-06-30 14:50:00,77.7,77.7,29.90,West,270,5.0,14.0,0,0.00,,,0.00,meteohub,2013-06-30 18:50:00,
2013-06-30 14:55:00,77.5,77.5,29.90,SW,226,1.0,14.0,0,0.00,,,0.00,meteohub,2013-06-30 18:55:00,
2013-06-30 15:00:00,77.5,77.5,29.90,South,173,3.0,10.0,0,0.00,,,0.00,meteohub,2013-06-30 19:00:00,
2013-06-30 15:05:00,77.5,77.5,29.90,WSW,243,3.0,10.0,0,0.00,,,0.00,meteohub,2013-06-30 19:05:00,
2013-06-30 15:10:00,77.4,77.4,29.90,WSW,255,3.0,9.0,0,0.00,,,0.00,meteohub,2013-06-30 19:10:00,
2013-06-30 15:15:00,77.2,77.2,29.90,WSW,237,2.0,13.0,0,0.00,,,0.00,meteohub,2013-06-30 19:15:00,
2013-06-30 15:20:00,77.2,77.2,29.89,SE,143,2.0,13.0,0,0.00,,,0.00,meteohub,2013-06-30 19:20:00,
2013-06-30 15:25:00,76.8,76.8,29.89,SW,217,6.0,13.0,0,0.00,,,0.00,meteohub,2013-06-30 19:25:00,
2013-06-30 15:30:00,76.6,76.6,29.90,SSW,198,2.0,14.0,0,0.00,,,0.00,meteohub,2013-06-30 19:30:00,
2013-06-30 15:35:00,76.6,76.6,29.89,West,273,2.0,14.0,0,0.00,,,0.00,meteohub,2013-06-30 19:35:00,
2013-06-30 15:40:00,76.5,76.5,29.90,SSW,198,3.0,13.0,0,0.00,,,0.00,meteohub,2013-06-30 19:40:00,
2013-06-30 15:45:00,76.3,76.3,29.90,SE,144,4.0,13.0,0,0.00,,,0.00,meteohub,2013-06-30 19:45:00,
2013-06-30 15:50:00,75.9,75.9,29.90,WSW,242,10.0,10.0,0,0.00,,,0.00,meteohub,2013-06-30 19:50:00,
2013-06-30 15:55:00,75.7,75.7,29.90,South,187,3.0,10.0,0,0.00,,,0.00,meteohub,2013-06-30 19:55:00,
2013-06-30 16:00:00,75.6,75.6,29.91,SSE,150,3.0,10.0,0,0.00,,,0.00,meteohub,2013-06-30 20:00:00,
2013-06-30 16:05:00,75.7,75.7,29.91,South,172,2.0,10.0,0,0.00,,,0.00,meteohub,2013-06-30 20:05:00,
2013-06-30 16:10:00,76.1,76.1,29.91,West,276,4.0,9.0,0,0.00,,,0.00,meteohub,2013-06-30 20:10:00,
2013-06-30 16:15:00,75.9,75.9,29.91,SSW,196,3.0,11.0,0,0.00,,,0.00,meteohub,2013-06-30 20:15:00,
2013-06-30 16:20:00,75.7,75.7,29.91,WSW,253,5.0,11.0,0,0.00,,,0.00,meteohub,2013-06-30 20:20:00,
2013-06-30 16:25:00,75.9,75.9,29.91,South,173,3.0,12.0,0,0.00,,,0.00,meteohub,2013-06-30 20:25:00,
2013-06-30 16:30:00,75.9,75.9,29.91,South,184,6.0,12.0,0,0.00,,,0.00,meteohub,2013-06-30 20:30:00,
2013-06-30 16:35:00,75.7,75.7,29.91,South,190,1.0,13.0,0,0.00,,,0.00,meteohub,2013-06-30 20:35:00,
2013-06-30 16:40:00,75.6,75.6,29.91,SSW,196,7.0,13.0,0,0.00,,,0.00,meteohub,2013-06-30 20:40:00,
2013-06-30 16:45:00,75.4,75.4,29.91,SE,144,2.0,10.0,0,0.00,,,0.00,meteohub,2013-06-30 20:45:00,
2013-06-30 16:50:00,75.4,75.4,29.91,South,179,4.0,11.0,0,0.00,,,0.00,meteohub,2013-06-30 20:50:00,
2013-06-30 16:55:00,75.0,75.0,29.91,SSE,157,3.0,11.0,0,0.00,,,0.00,meteohub,2013-06-30 20:55:00,
2013-06-30 17:00:00,75.0,75.0,29.91,WSW,256,1.0,11.0,0,0.00,,,0.00,meteohub,2013-06-30 21:00:00,
2013-06-30 17:06:00,74.8,74.8,29.91,SSE,155,6.0,9.0,0,0.00,,,0.00,meteohub,2013-06-30 21:06:00,
2013-06-30 17:11:00,74.8,74.8,29.91,WSW,240,4.0,11.0,0,0.00,,,0.00,meteohub,2013-06-30 21:11:00,
2013-06-30 17:15:00,75.0,75.0,29.91,SSW,204,2.0,11.0,0,0.00,,,0.00,meteohub,2013-06-30 21:15:00,
2013-06-30 17:21:00,75.2,75.2,29.91,SSE,148,1.0,11.0,0,0.00,,,0.00,meteohub,2013-06-30 21:21:00,
2013-06-30 17:26:00,75.4,75.4,29.91,SSE,150,3.0,8.0,0,0.00,,,0.00,meteohub,2013-06-30 21:26:00,
2013-06-30 17:31:00,75.4,75.4,29.91,SE,137,1.0,8.0,0,0.00,,,0.00,meteohub,2013-06-30 21:31:00,
2013-06-30 17:36:00,75.6,75.6,29.90,SSE,166,3.0,8.0,0,0.00,,,0.00,meteohub,2013-06-30 21:36:00,
2013-06-30 17:41:00,75.7,75.7,29.90,SW,235,1.0,10.0,0,0.00,,,0.00,meteohub,2013-06-30 21:41:00,
2013-06-30 17:46:00,75.7,75.7,29.90,West,280,3.0,10.0,0,0.00,,,0.00,meteohub,2013-06-30 21:46:00,
2013-06-30 17:51:00,75.6,75.6,29.90,South,171,4.0,10.0,0,0.00,,,0.00,meteohub,2013-06-30 21:51:00,
2013-06-30 17:56:00,75.6,75.6,29.90,South,182,4.0,10.0,0,0.00,,,0.00,meteohub,2013-06-30 21:56:00,
2013-06-30 18:01:00,75.6,75.6,29.91,South,188,3.0,10.0,0,0.00,,,0.00,meteohub,2013-06-30 22:01:00,
2013-06-30 18:06:00,75.6,75.6,29.91,SE,131,2.0,9.0,0,0.00,,,0.00,meteohub,2013-06-30 22:06:00,
2013-06-30 18:11:00,75.6,75.6,29.91,SE,145,1.0,8.0,0,0.00,,,0.00,meteohub,2013-06-30 22:11:00,
2013-06-30 18:16:00,75.6,75.6,29.91,SSW,196,3.0,10.0,0,0.00,,,0.00,meteohub,2013-06-30 22:16:00,
2013-06-30 18:21:00,75.6,75.6,29.92,SSW,210,0.0,10.0,0,0.00,,,0.00,meteohub,2013-06-30 22:21:00,
2013-06-30 18:26:00,75.7,75.7,29.92,SSE,153,0.0,10.0,0,0.00,,,0.00,meteohub,2013-06-30 22:26:00,
2013-06-30 18:31:00,75.9,75.9,29.92,SE,146,2.0,4.0,0,0.00,,,0.00,meteohub,2013-06-30 22:31:00,
2013-06-30 18:36:00,75.9,75.9,29.92,SSE,153,1.0,5.0,0,0.00,,,0.00,meteohub,2013-06-30 22:36:00,
2013-06-30 18:41:00,75.7,75.7,29.93,SW,221,1.0,5.0,0,0.00,,,0.00,meteohub,2013-06-30 22:41:00,
2013-06-30 18:46:00,75.6,75.6,29.93,SE,128,1.0,5.0,0,0.00,,,0.00,meteohub,2013-06-30 22:46:00,
2013-06-30 18:51:00,75.0,75.0,29.93,SE,131,2.0,6.0,0,0.00,,,0.00,meteohub,2013-06-30 22:51:00,
2013-06-30 18:56:00,74.8,74.8,29.93,SSW,198,1.0,6.0,0,0.00,,,0.00,meteohub,2013-06-30 22:56:00,
2013-06-30 19:01:00,74.7,74.7,29.93,SSE,158,1.0,8.0,0,0.00,,,0.00,meteohub,2013-06-30 23:01:00,
2013-06-30 19:06:00,74.5,74.5,29.93,SE,138,1.0,8.0,0,0.00,,,0.00,meteohub,2013-06-30 23:06:00,
2013-06-30 19:11:00,74.5,74.5,29.93,West,260,2.0,8.0,0,0.00,,,0.00,meteohub,2013-06-30 23:11:00,
2013-06-30 19:16:00,74.5,74.5,29.93,SSE,160,1.0,7.0,0,0.00,,,0.00,meteohub,2013-06-30 23:16:00,
2013-06-30 19:21:00,74.3,74.3,29.94,SSW,207,1.0,6.0,0,0.00,,,0.00,meteohub,2013-06-30 23:21:00,
2013-06-30 19:26:00,74.1,74.1,29.93,SSE,166,0.0,7.0,0,0.00,,,0.00,meteohub,2013-06-30 23:26:00,
2013-06-30 19:31:00,73.9,73.9,29.93,WSW,249,1.0,7.0,0,0.00,,,0.00,meteohub,2013-06-30 23:31:00,
2013-06-30 19:36:00,73.9,73.9,29.93,SE,138,1.0,7.0,0,0.00,,,0.00,meteohub,2013-06-30 23:36:00,
2013-06-30 19:41:00,73.8,73.8,29.93,SSW,204,0.0,5.0,0,0.00,,,0.00,meteohub,2013-06-30 23:41:00,
2013-06-30 19:46:00,73.6,73.6,29.93,SE,142,0.0,5.0,0,0.01,,,0.01,meteohub,2013-06-30 23:46:00,
2013-06-30 19:51:00,73.2,73.2,29.93,SSE,165,0.0,5.0,0,0.04,,,0.04,meteohub,2013-06-30 23:51:00,
2013-06-30 19:56:00,73.0,73.0,29.93,SSE,153,1.0,3.0,0,0.04,,,0.04,meteohub,2013-06-30 23:56:00,
2013-06-30 20:01:00,72.9,72.9,29.94,SSE,153,1.0,6.0,0,0.05,,,0.05,meteohub,2013-07-01 00:01:00,
2013-06-30 20:06:00,72.7,72.7,29.93,SE,137,0.0,6.0,0,0.06,,,0.01,meteohub,2013-07-01 00:06:00,
2013-06-30 20:11:00,72.5,72.5,29.93,SSE,155,2.0,6.0,0,0.07,,,0.02,meteohub,2013-07-01 00:11:00,
2013-06-30 20:16:00,72.3,72.3,29.93,SSE,153,0.0,5.0,0,0.07,,,0.02,meteohub,2013-07-01 00:16:00,
2013-06-30 20:21:00,72.1,72.1,29.93,SSE,149,1.0,5.0,0,0.07,,,0.02,meteohub,2013-07-01 00:21:00,
2013-06-30 20:26:00,72.1,72.1,29.93,SSW,210,1.0,5.0,0,0.09,,,0.04,meteohub,2013-07-01 00:26:00,
2013-06-30 20:31:00,72.0,72.0,29.93,SW,217,2.0,5.0,0,0.11,,,0.05,meteohub,2013-07-01 00:31:00,
2013-06-30 20:36:00,72.0,72.0,29.93,SSW,208,1.0,5.0,0,0.11,,,0.06,meteohub,2013-07-01 00:36:00,
2013-06-30 20:41:00,72.0,72.0,29.93,SW,222,1.0,6.0,0,0.11,,,0.06,meteohub,2013-07-01 00:41:00,
2013-06-30 20:46:00,72.0,72.0,29.93,SSW,200,0.0,6.0,0,0.08,,,0.06,meteohub,2013-07-01 00:46:00,
2013-06-30 20:51:00,72.0,72.0,29.93,SSE,166,0.0,8.0,0,0.07,,,0.06,meteohub,2013-07-01 00:51:00,
2013-06-30 20:57:00,72.0,72.0,29.94,South,176,3.0,8.0,0,0.07,,,0.06,meteohub,2013-07-01 00:57:00,
2013-06-30 21:02:00,72.0,72.0,29.93,South,184,1.0,6.0,0,0.06,,,0.06,meteohub,2013-07-01 01:02:00,
2013-06-30 21:07:00,72.0,72.0,29.93,WNW,285,0.0,6.0,0,0.05,,,0.06,meteohub,2013-07-01 01:07:00,
2013-06-30 21:12:00,72.1,72.1,29.94,SSW,195,1.0,6.0,0,0.04,,,0.06,meteohub,2013-07-01 01:12:00,
2013-06-30 21:17:00,72.1,72.1,29.94,SW,229,1.0,5.0,0,0.04,,,0.06,meteohub,2013-07-01 01:17:00,
2013-06-30 21:22:00,72.1,72.1,29.94,South,187,2.0,5.0,0,0.04,,,0.06,meteohub,2013-07-01 01:22:00,
2013-06-30 21:27:00,72.1,72.1,29.94,SSW,212,0.0,5.0,0,0.01,,,0.06,meteohub,2013-07-01 01:27:00,
2013-06-30 21:32:00,72.1,72.1,29.95,West,271,2.0,6.0,0,0.00,,,0.06,meteohub,2013-07-01 01:32:00,
2013-06-30 21:37:00,72.1,72.1,29.95,SW,217,1.0,7.0,0,0.00,,,0.06,meteohub,2013-07-01 01:37:00,
2013-06-30 21:42:00,72.1,72.1,29.95,SSE,157,0.0,8.0,0,0.00,,,0.06,meteohub,2013-07-01 01:42:00,
2013-06-30 21:47:00,72.3,72.3,29.96,WSW,248,1.0,9.0,0,0.00,,,0.06,meteohub,2013-07-01 01:47:00,
2013-06-30 21:52:00,72.3,72.3,29.96,SW,231,1.0,10.0,0,0.00,,,0.06,meteohub,2013-07-01 01:52:00,
2013-06-30 21:57:00,72.3,72.3,29.96,South,186,0.0,10.0,0,0.00,,,0.06,meteohub,2013-07-01 01:57:00,
2013-06-30 22:02:00,72.3,72.3,29.96,WSW,238,0.0,10.0,0,0.00,,,0.06,meteohub,2013-07-01 02:02:00,
2013-06-30 22:07:00,72.3,72.3,29.96,SSE,165,0.0,7.0,0,0.00,,,0.06,meteohub,2013-07-01 02:07:00,
2013-06-30 22:12:00,72.3,72.3,29.96,WSW,238,0.0,11.0,0,0.00,,,0.06,meteohub,2013-07-01 02:12:00,
2013-06-30 22:17:00,72.3,72.3,29.96,West,280,0.0,11.0,0,0.00,,,0.06,meteohub,2013-07-01 02:17:00,
2013-06-30 22:22:00,72.5,72.5,29.96,SSW,198,0.0,11.0,0,0.00,,,0.06,meteohub,2013-07-01 02:22:00,
2013-06-30 22:27:00,72.7,72.7,29.96,WSW,257,0.0,5.0,0,0.00,,,0.06,meteohub,2013-07-01 02:27:00,
2013-06-30 22:32:00,72.7,72.7,29.96,SW,219,0.0,1.0,0,0.00,,,0.06,meteohub,2013-07-01 02:32:00,
2013-06-30 22:37:00,72.7,72.7,29.96,SSE,162,0.0,1.0,0,0.00,,,0.06,meteohub,2013-07-01 02:37:00,
2013-06-30 22:42:00,72.7,72.7,29.97,SSE,152,0.0,1.0,0,0.00,,,0.06,meteohub,2013-07-01 02:42:00,
2013-06-30 22:47:00,72.7,72.7,29.97,WSW,253,0.0,1.0,0,0.00,,,0.06,meteohub,2013-07-01 02:47:00,
2013-06-30 22:52:00,72.7,72.7,29.97,WSW,249,0.0,1.0,0,0.00,,,0.06,meteohub,2013-07-01 02:52:00,
2013-06-30 22:57:00,72.7,72.7,29.97,SSE,150,0.0,1.0,0,0.00,,,0.06,meteohub,2013-07-01 02:57:00,
2013-06-30 23:02:00,72.7,72.7,29.97,SSW,193,0.0,1.0,0,0.00,,,0.06,meteohub,2013-07-01 03:02:00,
2013-06-30 23:07:00,72.7,72.7,29.97,South,188,0.0,1.0,0,0.00,,,0.06,meteohub,2013-07-01 03:07:00,
2013-06-30 23:12:00,72.7,72.7,29.98,SSE,167,0.0,1.0,0,0.00,,,0.06,meteohub,2013-07-01 03:12:00,
2013-06-30 23:17:00,72.7,72.7,29.98,South,184,0.0,1.0,0,0.00,,,0.06,meteohub,2013-07-01 03:17:00,
2013-06-30 23:22:00,72.7,72.7,29.98,SSE,166,0.0,1.0,0,0.00,,,0.06,meteohub,2013-07-01 03:22:00,
2013-06-30 23:27:00,72.7,72.7,29.98,SSW,207,0.0,1.0,0,0.00,,,0.06,meteohub,2013-07-01 03:27:00,
2013-06-30 23:32:00,72.7,72.7,29.98,SE,141,0.0,1.0,0,0.00,,,0.06,meteohub,2013-07-01 03:32:00,
2013-06-30 23:37:00,72.7,72.7,29.98,WSW,252,0.0,1.0,0,0.00,,,0.06,meteohub,2013-07-01 03:37:00,
2013-06-30 23:42:00,72.7,72.7,29.98,SSE,150,0.0,1.0,0,0.00,,,0.06,meteohub,2013-07-01 03:42:00,
2013-06-30 23:47:00,72.7,72.7,29.98,SSE,165,0.0,1.0,0,0.00,,,0.06,meteohub,2013-07-01 03:47:00,
2013-06-30 23:52:00,72.7,72.7,29.98,WSW,257,0.0,1.0,0,0.00,,,0.06,meteohub,2013-07-01 03:52:00,
2013-06-30 23:57:00,72.7,72.7,29.98,SE,127,0.0,1.0,0,0.00,,,0.06,meteohub,2013-07-01 03:57:00,